Location: Kitt Peak
(31.9514°N, 111.6156°W)
Time: 19:40:43
(UTC-07:00)

ISS - Pass Details

Date: 09 December 2021
Orbit: 413 x 422 km, 51.6° (Epoch: 27 January)

Event Time Altitude Azimuth Distance (km) Brightness Sun altitude
Rises 18:26:57 0° 307° (NW) 2,371 0.6 -13.5°
Reaches altitude 10° 18:29:08 10° 300° (WNW) 1,501 -0.4 -13.9°
Maximum altitude 18:32:19 40° 229° (SW) 630 -2.3 -14.5°
Drops below altitude 10° 18:35:28 10° 158° (SSE) 1,485 -1.0 -15.2°
Enters shadow 18:38:54 -4° 148° (SSE) 2,863 0.3 -15.9°
